Flag for Ukraine Weather past 2 weeks in Kyiv, Ukraine

Now
25 °F

Clear.


Feels Like: 13 °F
Forecast: 24 / 40 °F
Wind: 13 mph from East

Location: Kyiv

Current Time: Oct 24, 2014 at 11:47:09 PM

Latest Report: Oct 24, 2014 at 11:00 PM


Visibility: 10 mi

Pressure: 30.54 "Hg

Humidity: 63%

Dew point: 14 °F

Location of KyivLocation

Historic Weather in Kyiv — Graph

°F

Kyiv temperature yesterday

Maximum temperature yesterday: 43 °F (at 12:00 AM)
Minimum temperature yesterday: 32 °F (at 11:00 PM)
Average temperature yesterday: 36 °F

Past Weeks' High & Low Weather Summary

 TemperatureHumidityPressure
High72 °F (Oct 13, 2:30 PM)100% (Oct 12, 3:30 AM)30.54 "Hg (Oct 12, 3:30 AM)
Low25 °F (Oct 19, 5:30 AM)23% (Oct 14, 2:30 PM)29.00 "Hg (Oct 17, 8:03 AM)
Average49 °F71%29.99 "Hg
* Reported Oct 9 10:00 PM — Oct 24 10:30 PM, Kyiv, Weather by CustomWeather, © 2014

Note: Actual official high and low records may vary slightly from our data, if they occured in-between our weather recording intervals... More about our weather records

Advertising

Kyiv weather history for previous 24 hours

 ConditionsComfort  
Time TempWeatherWind HumidityBarometerVisibility
10:30 PM
Oct 24
25 °FClear.13 mph63%30.54 "Hg10 mi
10:00 PM25 °FClear.13 mph63%30.54 "Hg10 mi
9:30 PM25 °FClear.13 mph63%30.54 "Hg10 mi
9:00 PM25 °FClear.13 mph63%30.51 "Hg10 mi
8:30 PM27 °FClear.15 mph59%30.51 "Hg10 mi
8:00 PM27 °FClear.13 mph54%30.51 "Hg10 mi
7:30 PM27 °FClear.10 mph54%30.51 "Hg10 mi
7:00 PM28 °FClear.13 mph55%30.51 "Hg10 mi
6:30 PM28 °FSunny.13 mph55%30.48 "Hg10 mi
6:00 PM30 °FSunny.15 mph47%30.48 "Hg10 mi
5:30 PM30 °FSunny.13 mph51%30.48 "Hg10 mi
5:00 PM30 °FSunny.10 mph51%30.48 "Hg10 mi
4:30 PM30 °FSunny.10 mph51%30.48 "Hg10 mi
4:00 PM32 °FSunny.10 mph47%30.45 "Hg10 mi
3:30 PM30 °FPassing clouds.13 mph47%30.45 "HgN/A
3:00 PM30 °FSunny.15 mph43%30.45 "Hg10 mi
2:30 PM32 °FSunny.13 mph44%30.45 "Hg10 mi
2:00 PM30 °FPassing clouds.13 mph47%30.45 "HgN/A
1:30 PM30 °FSunny.13 mph47%30.45 "Hg10 mi
1:00 PM30 °FSunny.15 mph47%30.45 "Hg10 mi
12:30 PM28 °FSunny.15 mph51%30.45 "Hg10 mi
12:00 PM28 °FSunny.13 mph51%30.45 "Hg10 mi
11:30 AM28 °FSunny.13 mph55%30.45 "Hg10 mi
11:00 AM28 °FSunny.13 mph55%30.45 "Hg10 mi
10:30 AM28 °FSunny.13 mph55%30.42 "Hg10 mi
10:00 AM27 °FSunny.13 mph59%30.42 "Hg10 mi
9:30 AM27 °FSunny.13 mph59%30.42 "Hg10 mi
9:00 AM27 °FSunny.13 mph59%30.42 "Hg10 mi
8:30 AM27 °FClear.13 mph59%30.39 "Hg10 mi
8:00 AM27 °FClear.10 mph59%30.39 "Hg10 mi
7:30 AM27 °FClear.13 mph59%30.39 "Hg10 mi
7:00 AM28 °FClear.13 mph55%30.36 "Hg10 mi
6:30 AM28 °FClear.13 mph55%30.36 "Hg10 mi
5:30 AM28 °FClear.15 mph55%30.33 "Hg10 mi
5:00 AM28 °FClear.15 mph55%30.33 "Hg10 mi
4:30 AM28 °FClear.17 mph55%30.33 "Hg10 mi
4:00 AM28 °FClear.15 mph55%30.33 "Hg10 mi
3:30 AM28 °FClear.15 mph55%30.33 "Hg10 mi
3:00 AM28 °FClear.15 mph55%30.30 "Hg10 mi
2:30 AM30 °FClear.17 mph51%30.30 "Hg10 mi
2:00 AM30 °FClear.15 mph51%30.30 "Hg10 mi
1:30 AM30 °FClear.15 mph55%30.30 "Hg10 mi
1:00 AM30 °FClear.15 mph55%30.30 "Hg10 mi
12:30 AM30 °FClear.17 mph59%30.30 "Hg10 mi
12:00 AM32 °FClear.17 mph55%30.27 "Hg10 mi
11:30 PM
Oct 23
32 °FClear.17 mph55%30.27 "Hg10 mi
11:00 PM32 °FClear.20 mph51%30.27 "Hg10 mi
Weather by CustomWeather, © 2014

See weather overviewHow to use our weather pages